| time (UTC) | temp F | wind direction | speed MPH | gust MPH | rain 1hr in | rain 24hr in | rain mn in | humidity % | barometer mb |
| 20260906161532 | 74 | 124 | 2.0 | 7.0 | 0.00 | 0.00 | 0.00 | 86 | 1022.1 |
| 20260906160006 | 73 | 113 | 3.0 | 9.0 | 0.00 | 0.00 | 0.00 | 88 | 1022.2 |
| 20260906154525 | 72 | 111 | 2.0 | 7.0 | 0.00 | 0.00 | 0.00 | 90 | 1022.3 |
| 20260906153057 | 71 | 86 | 2.0 | 5.0 | 0.00 | 0.00 | 0.00 | 92 | 1022.2 |
| 20260906151521 | 71 | 68 | 2.0 | 8.0 | 0.00 | 0.00 | 0.00 | 91 | 1022.5 |
| 20260906150108 | 71 | 85 | 1.0 | 5.0 | 0.00 | 0.00 | 0.00 | 92 | 1022.5 |
| 20260906144514 | 70 | 139 | 2.0 | 4.0 | 0.00 | 0.00 | 0.00 | 92 | 1022.3 |
| 20260906143049 | 70 | 60 | 2.0 | 6.0 | 0.00 | 0.00 | 0.00 | 92 | 1022.1 |
| 20260906141508 | 70 | 92 | 1.0 | 6.0 | 0.00 | 0.00 | 0.00 | 93 | 1022.2 |
| 20260906140039 | 70 | 129 | 3.0 | 7.0 | 0.00 | 0.00 | 0.00 | 93 | 1021.9 |
| 20260906134509 | 69 | 102 | 2.0 | 7.0 | 0.00 | 0.00 | 0.00 | 93 | 1022.0 |
| 20260906133051 | 69 | 109 | 2.0 | 8.0 | 0.00 | 0.00 | 0.00 | 95 | 1021.9 |
| 20260906131511 | 68 | 113 | 6.0 | 11.0 | 0.00 | 0.00 | 0.00 | 96 | 1021.7 |
| 20260906130037 | 68 | 78 | 4.0 | 9.0 | 0.00 | 0.00 | 0.00 | 97 | 1021.4 |
| 20260906124503 | 68 | 108 | 3.0 | 10.0 | 0.00 | 0.00 | 0.00 | 97 | 1021.4 |
| 20260906123025 | 68 | 119 | 5.0 | 10.0 | 0.00 | 0.00 | 0.00 | 97 | 1021.3 |
| 20260906121556 | 68 | 121 | 4.0 | 8.0 | 0.00 | 0.00 | 0.00 | 98 | 1021.3 |
| 20260906120030 | 68 | 112 | 4.0 | 9.0 | 0.00 | 0.00 | 0.00 | 98 | 1021.4 |
| 20260906114548 | 68 | 129 | 3.0 | 7.0 | 0.00 | 0.00 | 0.00 | 98 | 1021.3 |
| 20260906113013 | 68 | 118 | 2.0 | 6.0 | 0.00 | 0.00 | 0.00 | 98 | 1021.1 |
| 20260906111545 | 68 | 115 | 1.0 | 4.0 | 0.00 | 0.00 | 0.00 | 98 | 1021.1 |
| 20260906110012 | 68 | 123 | 0.0 | 3.0 | 0.00 | 0.00 | 0.00 | 97 | 1021.0 |
| 20260906104539 | 68 | 112 | 1.0 | 4.0 | 0.00 | 0.00 | 0.00 | 97 | 1020.7 |
| 20260906103011 | 68 | 115 | 2.0 | 4.0 | 0.00 | 0.00 | 0.00 | 97 | 1020.7 |
| 20260906101533 | 69 | 119 | 0.0 | 3.0 | 0.00 | 0.00 | 0.00 | 97 | 1020.8 |
| 20260906100005 | 69 | 120 | 2.0 | 4.0 | 0.00 | 0.00 | 0.00 | 97 | 1020.7 |
| 20260906094528 | 69 | 133 | 2.0 | 7.0 | 0.00 | 0.00 | 0.00 | 97 | 1020.1 |
| 20260906093054 | 69 | 112 | 2.0 | 7.0 | 0.00 | 0.00 | 0.00 | 97 | 1019.8 |
| 20260906091525 | 69 | 93 | 3.0 | 7.0 | 0.00 | 0.00 | 0.00 | 97 | 1019.5 |
| 20260906090053 | 70 | 94 | 2.0 | 7.0 | 0.00 | 0.00 | 0.00 | 96 | 1019.7 |
| 20260906084523 | 70 | 95 | 1.0 | 6.0 | 0.00 | 0.00 | 0.00 | 96 | 1019.7 |
| 20260906083051 | 70 | 96 | 3.0 | 7.0 | 0.00 | 0.00 | 0.00 | 96 | 1019.6 |
| 20260906081519 | 71 | 125 | 3.0 | 8.0 | 0.00 | 0.00 | 0.00 | 95 | 1019.6 |
| 20260906080040 | 71 | 99 | 4.0 | 8.0 | 0.00 | 0.00 | 0.00 | 95 | 1019.7 |
| 20260906074513 | 71 | 104 | 2.0 | 9.0 | 0.00 | 0.00 | 0.00 | 94 | 1019.7 |
| 20260906073040 | 71 | 75 | 5.0 | 10.0 | 0.00 | 0.00 | 0.00 | 94 | 1019.7 |
| 20260906071514 | 71 | 93 | 1.0 | 8.0 | 0.00 | 0.00 | 0.00 | 94 | 1019.8 |
| 20260906070042 | 72 | 110 | 2.0 | 10.0 | 0.00 | 0.00 | 0.00 | 94 | 1020.0 |
| 20260906064517 | 72 | 80 | 3.0 | 8.0 | 0.00 | 0.00 | 0.00 | 94 | 1020.5 |
| 20260906063043 | 72 | 68 | 3.0 | 9.0 | 0.00 | 0.00 | 0.00 | 93 | 1020.5 |
| 20260906061511 | 72 | 62 | 2.0 | 7.0 | 0.00 | 0.00 | 0.00 | 93 | 1020.5 |
| 20260906060027 | 72 | 85 | 3.0 | 8.0 | 0.00 | 0.00 | 0.00 | 92 | 1020.4 |
| 20260906054604 | 72 | 68 | 5.0 | 9.0 | 0.00 | 0.00 | 0.00 | 93 | 1020.2 |
| 20260906053024 | 72 | 84 | 2.0 | 7.0 | 0.00 | 0.00 | 0.00 | 93 | 1019.9 |
| 20260906051606 | 73 | 85 | 3.0 | 6.0 | 0.00 | 0.00 | 0.00 | 93 | 1019.9 |
| 20260906050025 | 73 | 54 | 3.0 | 6.0 | 0.00 | 0.00 | 0.00 | 92 | 1019.7 |
| 20260906044550 | 73 | 62 | 3.0 | 8.0 | 0.00 | 0.00 | 0.00 | 92 | 1019.9 |
| 20260906043018 | 74 | 66 | 2.0 | 6.0 | 0.00 | 0.00 | 0.00 | 91 | 1019.8 |
| 20260906041542 | 74 | 83 | 1.0 | 4.0 | 0.00 | 0.00 | 0.00 | 91 | 1019.8 |
| 20260906040026 | 74 | 81 | 1.0 | 4.0 | 0.00 | 0.00 | 0.00 | 91 | 1019.7 |
| 20260906034555 | 74 | 60 | 0.0 | 4.0 | 0.00 | 0.00 | 0.00 | 91 | 1019.8 |
| 20260906033038 | 75 | 62 | 2.0 | 6.0 | 0.00 | 0.00 | 0.00 | 90 | 1019.6 |
| 20260906031545 | 75 | 87 | 0.0 | 4.0 | 0.00 | 0.00 | 0.00 | 90 | 1019.5 |
| 20260906030016 | 75 | 92 | 1.0 | 6.0 | 0.00 | 0.00 | 0.00 | 90 | 1019.2 |
| 20260906024542 | 75 | 84 | 2.0 | 6.0 | 0.00 | 0.00 | 0.00 | 90 | 1019.2 |
| 20260906023104 | 75 | 104 | 2.0 | 6.0 | 0.00 | 0.00 | 0.00 | 90 | 1019.0 |
| 20260906021528 | 76 | 65 | 3.0 | 6.0 | 0.00 | 0.00 | 0.00 | 90 | 1018.9 |
| 20260906020101 | 76 | 82 | 3.0 | 8.0 | 0.00 | 0.00 | 0.00 | 90 | 1018.6 |
| 20260906020002 | 76 | 85 | 2.0 | 8.0 | 0.00 | 0.00 | 0.00 | 90 | 1018.6 |
| 20260906014532 | 77 | 81 | 3.0 | 6.0 | 0.00 | 0.00 | 0.00 | 89 | 1018.3 |
| 20260906013109 | 77 | 77 | 1.0 | 4.0 | 0.00 | 0.00 | 0.00 | 88 | 1018.1 |
| 20260906011526 | 78 | 87 | 0.0 | 1.0 | 0.00 | 0.00 | 0.00 | 88 | 1017.8 |
| 20260906010052 | 78 | 89 | 0.0 | 3.0 | 0.00 | 0.00 | 0.00 | 88 | 1017.8 |
| 20260906004523 | 78 | 102 | 0.0 | 0.0 | 0.00 | 0.00 | 0.00 | 88 | 1017.6 |
| 20260906003054 | 78 | 102 | 0.0 | 2.0 | 0.00 | 0.00 | 0.00 | 88 | 1017.6 |
| 20260906001524 | 78 | 103 | 2.0 | 6.0 | 0.00 | 0.00 | 0.00 | 87 | 1017.4 |
| 20260906000051 | 78 | 87 | 3.0 | 7.0 | 0.00 | 0.00 | 0.00 | 86 | 1017.3 |
| 20260905234510 | 79 | 83 | 2.0 | 5.0 | 0.00 | 0.00 | 0.00 | 84 | 1017.5 |
| 20260905233055 | 80 | 64 | 3.0 | 9.0 | 0.00 | 0.00 | 0.00 | 82 | 1017.5 |
| 20260905231520 | 82 | 73 | 3.0 | 9.0 | 0.00 | 0.00 | 0.00 | 80 | 1017.6 |
| 20260905230043 | 81 | 93 | 1.0 | 11.0 | 0.00 | 0.00 | 0.00 | 82 | 1017.2 |
| 20260905224534 | 81 | 64 | 6.0 | 12.0 | 0.00 | 0.00 | 0.00 | 82 | 1017.0 |
| 20260905223048 | 82 | 44 | 6.0 | 13.0 | 0.00 | 0.00 | 0.00 | 80 | 1017.0 |
| 20260905221519 | 82 | 60 | 6.0 | 13.0 | 0.00 | 0.00 | 0.00 | 81 | 1017.1 |
| 20260905220054 | 83 | 63 | 7.0 | 14.0 | 0.00 | 0.00 | 0.00 | 82 | 1017.1 |
| 20260905214528 | 84 | 83 | 4.0 | 13.0 | 0.00 | 0.00 | 0.00 | 80 | 1017.1 |
| 20260905213101 | 83 | 49 | 6.0 | 13.0 | 0.00 | 0.00 | 0.00 | 80 | 1017.1 |
| 20260905211537 | 84 | 60 | 5.0 | 13.0 | 0.00 | 0.00 | 0.00 | 81 | 1017.1 |
| 20260905210049 | 83 | 29 | 6.0 | 13.0 | 0.00 | 0.00 | 0.00 | 83 | 1017.5 |
| 20260905204517 | 84 | 55 | 4.0 | 10.0 | 0.00 | 0.00 | 0.00 | 82 | 1017.7 |
| 20260905203047 | 83 | 59 | 5.0 | 11.0 | 0.00 | 0.00 | 0.00 | 82 | 1017.9 |
| 20260905201522 | 84 | 66 | 3.0 | 10.0 | 0.00 | 0.00 | 0.00 | 80 | 1018.0 |
| 20260905200047 | 85 | 54 | 5.0 | 11.0 | 0.00 | 0.00 | 0.00 | 81 | 1018.0 |
| 20260905194521 | 85 | 64 | 4.0 | 11.0 | 0.00 | 0.00 | 0.00 | 80 | 1018.1 |
| 20260905193043 | 85 | 34 | 4.0 | 11.0 | 0.00 | 0.00 | 0.00 | 80 | 1018.2 |
| 20260905191517 | 85 | 44 | 4.0 | 10.0 | 0.00 | 0.00 | 0.00 | 80 | 1018.4 |
| 20260905190044 | 85 | 16 | 1.0 | 9.0 | 0.00 | 0.00 | 0.00 | 80 | 1018.6 |
| 20260905184526 | 85 | 23 | 2.0 | 9.0 | 0.00 | 0.00 | 0.00 | 82 | 1018.6 |
| 20260905183049 | 84 | 67 | 4.0 | 9.0 | 0.00 | 0.00 | 0.00 | 82 | 1018.6 |
| 20260905181510 | 84 | 38 | 2.0 | 10.0 | 0.00 | 0.00 | 0.00 | 83 | 1018.7 |
| 20260905180042 | 83 | 218 | 2.0 | 9.0 | 0.00 | 0.00 | 0.00 | 84 | 1018.5 |
| 20260905174503 | 84 | 9 | 4.0 | 12.0 | 0.00 | 0.00 | 0.00 | 83 | 1018.3 |
| 20260905173100 | 85 | 31 | 6.0 | 13.0 | 0.00 | 0.00 | 0.00 | 83 | 1018.3 |
| 20260905171557 | 86 | 45 | 6.0 | 12.0 | 0.00 | 0.00 | 0.00 | 81 | 1018.4 |
| 20260905170035 | 86 | 66 | 6.0 | 13.0 | 0.00 | 0.00 | 0.00 | 81 | 1018.4 |
| 20260905164515 | 87 | 41 | 3.0 | 10.0 | 0.00 | 0.00 | 0.00 | 81 | 1018.3 |
| 20260905163026 | 87 | 68 | 6.0 | 12.0 | 0.00 | 0.00 | 0.00 | 79 | 1018.3 |